User: anonymous   Login
Location: Caltech
(34.1382°N, 118.1253°W)
Time: 16:42:38
(UTC-07:00)
Language:

AO-27 - Orbit

View from above orbital plane
View from above orbital plane
View from above satellite
View from above satellite

Ground track
Ground track

The orbit data is extracted from the following two-line orbital elements,

1 22825U 93061C   14304.79633750  .00000192  00000-0  92259-4 0  8093
2 22825 098.6784 250.2440 0007378 254.1875 162.5764 14.29771716100307
Epoch (UTC): 31 October 2014 19:06:43
Eccentricity: 0.0007378
inclination: 98.6784°
perigee height: 787 km
apogee height: 798 km
right ascension of ascending node: 250.2440°
argument of perigee: 254.1875°
revolutions per day: 14.29771716
mean anomaly at epoch: 162.5764°
orbit number at epoch: 10030

The dashed part of the orbit path shows where the satellite is in the earth's shadow,  

DLR